Weather in Levkiv

Ukraine / Zhytomyr Region     50°14′24″N   28°49′55″E
temp.,
°C
wind,
m/s
gust,
m/s
humid.,
%
clouds,
%
prec.,
mm/h
press.,
hPa
HPBL,
m
2 august, mon
mon200:00+21s337773 0.0 100846
03:00+20s378092 0.0 1008118
06:00+20s4138096 0.0 1006309
09:00+25sw612595 0.0 1005544
12:00+28w8114968 0.0 10061341
15:00+26w710521 0.1 10081637
18:00+24wnw79580 0.0 10091282
21:00+18wnw59715 0.0 1010439
3 august, tue
tue300:00+15w34835 0.0 101366
03:00+13w35880 0.0 101491
06:00+13w35945 0.0 1014108
09:00+19wnw457039 0.0 1015556
12:00+23wnw455111 0.0 10151614
15:00+24wnw5544100 0.0 10152006
18:00+22nw3554100 0.0 1015614
21:00+20wnw225996 0.0 101624
4 august, wed
wed400:00+16w11750 0.0 101711
03:00+15w11795 0.0 101711
06:00+15s0077100 0.0 101711
09:00+21se225995 0.0 1017327
12:00+24sse3448100 0.0 10171155
15:00+26s3543100 0.0 10152089
18:00+18nne799037 2.7 1015253
21:00+16e5109699 11.5 1015245
5 august, thu
thu500:00+17se369688 2.6 1015154
03:00+16se4109693 2.6 1015251
06:00+15s239699 0.0 101456
09:00+20ese2281100 0.0 1013194
12:00+24sse3466100 0.0 1013744
15:00+28sse46495 0.0 10121309
18:00+26s365750 0.1 1010187
21:00+21e477843 0.1 1008115
6 august, fri
fri600:00+21sse4127199 0.0 1008242
03:00+21ssw41069100 0.0 1008224
06:00+18sse41188100 0.5 1007245
09:00+21s6138477 1.8 1006521
12:00+24ssw497293 0.4 1006895
15:00+23ssw3107697 2.8 1006383
18:00+22wsw3785100 2.1 1005238
21:00+19w5996100 9.9 1008267